GW6838 Weather Reports


time (UTC)temp
F
wind
direction
speed
knots
gust
knots
rain 1hr
in
rain 24hr
in
rain mn
in
humidity
%
barometer
mb
20260509173804 56 90 5.2 8.7 0.00 0.00 0.00 78 1007.4
20260509173303 55 97 4.3 10.4 0.00 0.00 0.00 79 1007.3
20260509172804 55 95 7.0 10.4 0.00 0.00 0.00 79 1007.3
20260509172306 55 125 5.2 10.4 0.00 0.00 0.00 79 1007.3
20260509171804 54 92 6.1 11.3 0.00 0.00 0.00 79 1007.5
20260509171305 55 74 6.1 11.3 0.00 0.00 0.00 78 1007.6
20260509170304 55 71 6.1 10.4 0.00 0.00 0.00 76 1007.7
20260509165804 55 70 5.2 12.2 0.00 0.00 0.00 77 1007.6
20260509165306 55 67 5.2 12.2 0.00 0.00 0.00 76 1007.8
20260509164805 54 60 4.3 13.0 0.00 0.00 0.00 78 1007.8
20260509164304 55 66 7.0 13.0 0.00 0.00 0.00 76 1008.0
20260509163804 54 73 2.6 7.8 0.00 0.00 0.00 77 1007.8
20260509163304 53 110 4.3 13.0 0.00 0.00 0.00 77 1008.0
20260509162805 52 80 6.1 13.0 0.00 0.00 0.00 77 1008.2
20260509162306 53 59 7.0 13.0 0.00 0.00 0.00 77 1008.2
20260509161305 52 126 5.2 13.0 0.00 0.00 0.00 78 1008.2
20260509160803 52 89 5.2 13.0 0.00 0.00 0.00 77 1008.4
20260509160304 53 67 2.6 11.3 0.00 0.00 0.00 77 1008.5
20260509154804 53 80 6.1 8.7 0.00 0.00 0.00 77 1008.5
20260509154303 53 88 4.3 10.4 0.00 0.00 0.00 77 1008.4
20260509153803 53 84 4.3 8.7 0.00 0.00 0.00 76 1008.6
20260509153304 53 114 5.2 10.4 0.00 0.00 0.00 76 1008.8
20260509152804 54 126 2.6 10.4 0.00 0.01 0.00 75 1008.9
20260509152305 55 63 2.6 10.4 0.00 0.02 0.00 74 1008.8
20260509151304 53 80 7.0 10.4 0.00 0.02 0.00 76 1008.9
20260509150804 53 64 5.2 10.4 0.00 0.03 0.00 76 1008.8
20260509150303 52 57 4.3 10.4 0.00 0.04 0.00 76 1009.0
20260509145805 52 92 6.1 10.4 0.00 0.04 0.00 76 1008.9
20260509145306 53 77 5.2 7.8 0.00 0.04 0.00 75 1008.9
20260509143803 52 65 7.8 12.2 0.00 0.04 0.00 76 1009.0
20260509143303 52 73 3.5 7.8 0.00 0.04 0.00 75 1009.0
20260509142804 52 115 6.1 10.4 0.00 0.04 0.00 75 1009.2
20260509142306 52 108 3.5 7.8 0.00 0.05 0.00 75 1009.2
20260509140803 51 123 2.6 7.0 0.00 0.05 0.00 75 1009.0
20260509140304 50 103 3.5 7.8 0.00 0.05 0.00 76 1009.2
20260509135805 50 114 2.6 7.8 0.00 0.06 0.00 75 1009.1
20260509135306 50 114 2.6 8.7 0.00 0.08 0.00 76 1009.3
20260509134804 49 103 5.2 11.3 0.00 0.08 0.00 76 1009.2
20260509134304 49 65 6.1 7.0 0.00 0.08 0.00 75 1009.3
20260509133805 49 65 2.6 8.7 0.00 0.09 0.00 76 1009.3
20260509133304 48 60 6.1 8.7 0.00 0.09 0.00 76 1009.5
20260509132804 48 81 5.2 10.4 0.00 0.09 0.00 76 1009.6
20260509131804 48 71 3.5 7.0 0.00 0.09 0.00 76 1009.5
20260509131303 48 98 2.6 6.1 0.00 0.09 0.00 76 1009.6
20260509125804 47 66 2.6 7.8 0.00 0.09 0.00 76 1009.5
20260509125307 47 78 5.2 6.1 0.00 0.09 0.00 77 1009.7
20260509124805 46 86 4.3 11.3 0.00 0.09 0.00 77 1009.7
20260509124304 46 117 4.3 11.3 0.00 0.09 0.00 77 1009.4
20260509123804 46 87 4.3 11.3 0.00 0.09 0.00 77 1009.4
20260509123303 46 62 5.2 11.3 0.00 0.09 0.00 77 1009.7
20260509122804 46 77 3.5 8.7 0.00 0.09 0.00 77 1009.5
20260509122306 45 69 6.1 7.8 0.00 0.09 0.00 77 1009.6
20260509121805 45 82 4.3 10.4 0.00 0.09 0.00 78 1009.7
20260509121303 45 110 3.5 6.1 0.00 0.09 0.00 78 1009.7
20260509120804 44 60 2.6 6.1 0.00 0.09 0.00 78 1009.7
20260509115805 44 87 2.6 7.0 0.00 0.09 0.00 79 1009.9
20260509115306 44 67 2.6 7.0 0.00 0.09 0.00 79 1009.8
20260509114803 43 105 2.6 6.1 0.00 0.09 0.00 79 1009.7
20260509114303 43 66 1.7 6.1 0.00 0.09 0.00 78 1009.8
20260509113303 43 102 2.6 8.7 0.00 0.09 0.00 78 1009.7
20260509112803 43 118 5.2 10.4 0.00 0.09 0.00 78 1009.7
20260509111804 43 132 3.5 8.7 0.00 0.09 0.00 79 1009.7
20260509111304 42 94 4.3 10.4 0.00 0.09 0.00 78 1009.7
20260509110805 42 111 3.5 7.8 0.00 0.09 0.00 79 1009.9
20260509110303 42 83 2.6 7.8 0.00 0.09 0.00 79 1010.1
20260509105804 42 123 4.3 7.8 0.00 0.09 0.00 80 1010.0
20260509105306 42 125 6.1 7.8 0.00 0.09 0.00 80 1009.9
20260509104804 42 104 2.6 6.1 0.00 0.09 0.00 81 1009.7
20260509103804 41 83 2.6 5.2 0.00 0.09 0.00 81 1009.9
20260509103304 41 101 2.6 6.1 0.00 0.09 0.00 82 1009.8
20260509102803 41 107 2.6 7.0 0.00 0.09 0.00 82 1010.0
20260509102305 41 108 2.6 7.0 0.00 0.09 0.00 82 1009.9
20260509101804 41 108 2.6 7.0 0.00 0.09 0.00 82 1009.9
20260509101304 41 111 2.6 6.1 0.00 0.09 0.00 82 1009.9
20260509100804 40 87 2.6 6.1 0.00 0.09 0.00 83 1009.8
20260509100305 40 109 2.6 5.2 0.00 0.09 0.00 83 1009.8
20260509095804 40 71 3.5 5.2 0.00 0.09 0.00 83 1009.7
20260509094804 40 81 2.6 5.2 0.00 0.09 0.00 83 1009.7
20260509094303 40 132 2.6 5.2 0.00 0.09 0.00 83 1009.7
20260509093803 40 87 2.6 5.2 0.00 0.09 0.00 83 1009.7
20260509093304 39 82 2.6 5.2 0.00 0.09 0.00 83 1009.5
20260509092804 40 113 2.6 6.1 0.00 0.09 0.00 83 1009.7
20260509092306 40 84 2.6 7.0 0.00 0.09 0.00 83 1009.8
20260509091803 40 113 4.3 7.0 0.00 0.09 0.00 84 1009.7
20260509091303 39 116 4.3 7.0 0.00 0.09 0.00 84 1009.7
20260509090805 39 113 2.6 5.2 0.00 0.09 0.00 85 1009.7
20260509090303 39 91 2.6 5.2 0.00 0.09 0.00 85 1009.9
20260509085306 39 93 2.6 5.2 0.00 0.09 0.00 86 1010.1
20260509084304 39 93 2.6 5.2 0.00 0.09 0.00 87 1010.2
20260509082804 39 74 4.3 5.2 0.00 0.09 0.00 88 1010.4
20260509082307 38 82 2.6 4.3 0.00 0.09 0.00 88 1010.3
20260509081804 38 96 2.6 5.2 0.00 0.09 0.00 88 1010.3
20260509080804 38 78 2.6 4.3 0.00 0.09 0.00 87 1010.5
20260509075805 38 91 1.7 4.3 0.00 0.09 0.00 87 1010.5
20260509075306 37 134 0.9 2.6 0.00 0.09 0.00 87 1010.7
20260509074805 38 68 0.9 2.6 0.00 0.09 0.00 86 1010.5
20260509074304 38 90 0.9 1.7 0.00 0.09 0.00 86 1010.6
20260509073803 39 141 1.7 2.6 0.00 0.09 0.00 85 1010.7
20260509073304 39 84 1.7 2.6 0.00 0.09 0.00 85 1010.5
20260509072803 39 83 1.7 4.3 0.00 0.09 0.00 85 1010.4
20260509072306 39 84 1.7 4.3 0.00 0.09 0.00 85 1010.5
20260509071804 39 123 1.7 4.3 0.00 0.09 0.00 84 1010.6
20260509071305 39 132 2.6 4.3 0.00 0.09 0.00 84 1010.5
20260509070803 39 114 1.7 4.3 0.00 0.09 0.00 84 1010.5
20260509070304 39 90 1.7 2.6 0.00 0.09 0.00 83 1010.5
20260509065805 39 88 1.7 4.3 0.00 0.09 0.00 83 1010.6
20260509065306 40 90 1.7 2.6 0.00 0.09 0.00 83 1010.7
20260509064804 40 105 1.7 2.6 0.00 0.09 0.00 82 1010.7
20260509064304 40 116 1.7 2.6 0.00 0.09 0.00 82 1010.6
20260509063804 40 88 1.7 4.3 0.00 0.09 0.00 82 1010.7
20260509063303 40 108 1.7 4.3 0.00 0.09 0.00 82 1010.8
20260509062803 40 101 1.7 4.3 0.00 0.09 0.00 83 1010.8
20260509062306 40 104 1.7 4.3 0.00 0.09 0.00 84 1010.9
20260509061803 40 69 1.7 4.3 0.00 0.09 0.00 85 1010.8
20260509061305 40 97 2.6 2.6 0.00 0.10 0.00 86 1010.9
20260509060805 40 98 1.7 2.6 0.00 0.11 0.00 87 1011.0
20260509060304 40 110 2.6 2.6 0.00 0.12 0.00 87 1011.1
20260509055306 39 120 1.7 2.6 0.00 0.13 0.00 89 1011.3
20260509054804 39 105 2.6 2.6 0.00 0.13 0.00 89 1011.4
20260509054303 39 102 1.7 4.3 0.00 0.13 0.00 89 1011.2
20260509053805 38 96 1.7 2.6 0.00 0.13 0.00 89 1011.2
20260509053305 38 83 1.7 2.6 0.00 0.13 0.00 89 1011.3
20260509052804 38 84 1.7 2.6 0.00 0.13 0.00 89 1011.4
20260509050804 38 72 1.7 2.6 0.00 0.13 0.00 89 1011.6
20260509045803 38 88 1.7 2.6 0.00 0.13 0.00 89 1011.7
20260509045306 38 106 1.7 2.6 0.00 0.13 0.00 89 1011.8
20260509044804 37 89 1.7 2.6 0.00 0.13 0.00 88 1011.7
20260509043805 38 91 1.7 2.6 0.00 0.13 0.00 88 1011.6
20260509042804 38 74 1.7 2.6 0.00 0.13 0.00 88 1011.8
20260509042306 38 90 1.7 2.6 0.00 0.13 0.00 88 1011.9
20260509041303 38 156 0.0 2.6 0.00 0.13 0.00 87 1012.0
20260509040804 39 87 1.7 2.6 0.00 0.13 0.00 87 1011.8
20260509035804 38 116 0.9 1.7 0.00 0.13 0.13 86 1011.8
20260509035306 39 126 0.9 1.7 0.00 0.13 0.13 86 1011.8
20260509034803 39 155 0.0 1.7 0.00 0.13 0.13 86 1011.9
20260509034304 39 102 0.9 1.7 0.00 0.13 0.13 85 1011.8
20260509033803 39 129 0.9 2.6 0.00 0.13 0.13 84 1012.0
20260509033305 39 106 1.7 2.6 0.00 0.13 0.13 83 1011.8
20260509032804 39 84 1.7 2.6 0.00 0.13 0.13 83 1011.9
20260509031803 40 101 1.7 2.6 0.00 0.13 0.13 83 1011.6
20260509031305 40 109 1.7 2.6 0.00 0.13 0.13 82 1011.7
20260509030804 40 112 0.9 2.6 0.00 0.13 0.13 82 1012.0
20260509030304 40 137 0.9 2.6 0.00 0.13 0.13 82 1011.9
20260509025804 40 77 1.7 2.6 0.00 0.13 0.13 82 1011.9
20260509025306 40 76 1.7 2.6 0.00 0.13 0.13 82 1011.9
20260509024804 41 120 0.9 2.6 0.00 0.13 0.13 82 1011.9
20260509023804 41 118 0.9 1.7 0.00 0.13 0.13 80 1012.0
20260509022804 40 126 0.9 1.7 0.00 0.13 0.13 79 1012.0
20260509022306 41 102 1.7 1.7 0.00 0.13 0.13 78 1012.0
20260509021304 41 101 1.7 1.7 0.00 0.13 0.13 76 1012.0
20260509020804 41 99 0.9 2.6 0.00 0.13 0.13 75 1012.1
20260509020304 42 105 1.7 2.6 0.00 0.13 0.13 75 1012.1
20260509015804 42 93 1.7 2.6 0.00 0.13 0.13 74 1012.1
20260509014805 42 70 1.7 2.6 0.00 0.13 0.13 72 1012.0
20260509014305 43 70 1.7 2.6 0.00 0.13 0.13 71 1011.8
20260509013804 42 83 1.7 2.6 0.00 0.13 0.13 70 1011.8
20260509013305 43 100 1.7 1.7 0.00 0.13 0.13 70 1011.7
20260509012804 43 104 0.9 1.7 0.00 0.13 0.13 69 1011.6
20260509012306 43 90 1.7 1.7 0.00 0.13 0.13 70 1011.6
20260509011804 44 74 0.9 1.7 0.00 0.13 0.13 70 1011.5
20260509011304 44 85 1.7 2.6 0.00 0.13 0.13 69 1011.5
20260509010803 45 90 1.7 2.6 0.00 0.13 0.13 68 1011.4
20260509005802 45 103 0.9 2.6 0.00 0.13 0.13 65 1011.4
20260509004802 46 95 0.9 2.6 0.00 0.13 0.13 61 1011.1
20260509004302 47 108 1.7 2.6 0.00 0.13 0.13 58 1011.0
20260509003803 47 110 1.7 2.6 0.00 0.13 0.13 57 1011.1
20260509003303 48 95 1.7 1.7 0.00 0.13 0.13 56 1011.2
20260509002802 48 81 0.9 1.7 0.00 0.13 0.13 56 1011.1
20260509002306 49 167 0.0 0.9 0.00 0.13 0.13 55 1011.0
20260509001303 50 111 0.9 2.6 0.00 0.13 0.13 47 1010.8
20260509000803 51 86 2.6 2.6 0.00 0.13 0.13 45 1010.9
20260509000304 52 74 1.7 2.6 0.00 0.13 0.13 41 1010.9
20260508235804 52 61 1.7 2.6 0.00 0.13 0.13 39 1010.9
20260508235306 53 50 0.9 4.3 0.00 0.13 0.13 39 1010.9
20260508234803 53 80 2.6 4.3 0.00 0.13 0.13 39 1010.8
20260508234304 53 71 2.6 2.6 0.00 0.13 0.13 36 1010.7
20260508233803 53 74 1.7 2.6 0.00 0.13 0.13 37 1010.7
20260508233303 54 69 1.7 2.6 0.00 0.13 0.13 37 1010.7
20260508232802 54 50 0.9 2.6 0.00 0.13 0.13 35 1010.8
20260508231802 55 62 1.7 2.6 0.00 0.13 0.13 35 1010.6
20260508231302 56 284 1.7 2.6 0.00 0.13 0.13 34 1010.6
20260508230802 57 272 0.9 6.1 0.00 0.13 0.13 33 1010.7
20260508230302 56 198 5.2 6.1 0.00 0.13 0.13 33 1010.8
20260508225805 57 327 1.7 5.2 0.00 0.13 0.13 32 1010.6
20260508224803 57 280 1.7 7.8 0.00 0.13 0.13 33 1010.8
20260508224302 56 261 4.3 7.0 0.00 0.13 0.13 33 1010.7
20260508223804 57 224 0.9 5.2 0.00 0.13 0.13 32 1010.8
20260508222306 58 245 2.6 7.0 0.00 0.13 0.13 32 1010.7
20260508221804 56 51 3.5 7.8 0.00 0.13 0.13 31 1010.8
20260508220802 57 13 2.6 7.8 0.00 0.13 0.13 30 1010.8
20260508220304 57 257 2.6 8.7 0.00 0.13 0.13 27 1010.9
20260508215804 57 281 4.3 13.9 0.00 0.13 0.13 33 1010.9
20260508215306 57 220 2.6 10.4 0.00 0.13 0.13 37 1011.1
20260508214803 57 268 5.2 12.2 0.00 0.13 0.13 37 1011.1
20260508214303 56 275 4.3 14.8 0.00 0.13 0.13 39 1011.1
20260508213803 57 220 5.2 8.7 0.00 0.13 0.13 36 1011.1
20260508213304 57 229 4.3 10.4 0.00 0.13 0.13 39 1011.0
20260508212802 56 276 6.1 14.8 0.00 0.13 0.13 38 1011.1
20260508211302 55 240 4.3 7.8 0.00 0.13 0.13 41 1011.0
20260508210803 55 231 2.6 10.4 0.00 0.13 0.13 41 1011.1
20260508210302 56 261 5.2 13.0 0.00 0.13 0.13 40 1011.0
20260508205802 56 216 5.2 10.4 0.00 0.13 0.13 40 1011.1
20260508205306 56 218 5.2 14.8 0.00 0.13 0.13 40 1011.2
20260508204302 56 252 8.7 14.8 0.00 0.13 0.13 42 1011.2
20260508203804 56 273 7.0 14.8 0.00 0.13 0.13 42 1011.2
20260508203303 55 308 1.7 7.8 0.00 0.13 0.13 43 1011.2
20260508202802 53 294 3.5 10.4 0.00 0.13 0.13 44 1011.1
20260508202306 55 254 6.1 15.6 0.00 0.13 0.13 45 1011.2
20260508201803 54 233 7.8 15.6 0.00 0.13 0.13 45 1011.1
20260508201303 54 209 10.4 17.4 0.00 0.13 0.13 43 1011.1
20260508200804 55 242 5.2 13.0 0.00 0.13 0.13 42 1011.3
20260508200302 55 262 5.2 17.4 0.00 0.13 0.13 44 1011.4
20260508195804 54 248 6.1 17.4 0.00 0.13 0.13 45 1011.5
20260508195306 55 256 4.3 7.0 0.00 0.13 0.13 48 1011.6
20260508193802 52 287 6.1 15.6 0.00 0.13 0.13 48 1011.7
20260508193303 54 217 4.3 12.2 0.00 0.13 0.13 48 1011.6
20260508192803 55 212 4.3 11.3 0.00 0.13 0.13 51 1011.4
20260508192306 53 278 7.0 14.8 0.00 0.13 0.13 52 1011.5
20260508191802 54 229 11.3 14.8 0.00 0.13 0.13 51 1011.6
20260508191302 53 234 6.1 14.8 0.00 0.13 0.13 54 1011.8
20260508190803 52 223 7.8 11.3 0.00 0.13 0.13 55 1011.8
20260508185803 52 229 8.7 19.1 0.00 0.13 0.13 55 1012.0
20260508185306 52 266 8.7 13.9 0.00 0.13 0.13 56 1011.9
20260508184803 52 232 5.2 17.4 0.00 0.13 0.13 55 1012.0
20260508184303 51 270 9.6 13.0 0.00 0.13 0.13 60 1012.0
20260508183804 52 198 7.0 11.3 0.00 0.13 0.13 59 1012.1
20260508183303 52 284 7.0 14.8 0.00 0.13 0.13 60 1012.2
20260508182802 51 303 6.1 17.4 0.00 0.13 0.13 57 1012.1
20260508182306 50 236 11.3 17.4 0.00 0.13 0.13 60 1012.2
20260508181303 51 286 5.2 14.8 0.00 0.13 0.13 59 1012.4
20260508180803 50 263 7.8 14.8 0.00 0.13 0.13 61 1012.4
20260508180302 49 240 6.1 18.2 0.00 0.13 0.13 62 1012.2
20260508175305 50 214 6.1 17.4 0.00 0.13 0.13 60 1012.4
20260508174802 51 220 7.8 17.4 0.00 0.13 0.13 66 1012.1